Location: Bergnershof
(48.9468°N, 10.9431°E)
Time: 10:50:07
(UTC+00:00)

Cosmos 1703 Rocket - Pass Details

Date: 03 March 2021
Orbit: 604 x 634 km, 82.5° (Epoch: 12 April)

Event Time Altitude Azimuth Distance (km) Brightness Sun altitude
Rises 18:47:06 0° 348° (NNW) 2,914 7.3 -17.8°
Reaches altitude 10° 18:49:21 10° 347° (NNW) 1,998 6.5 -18.2°
Maximum altitude 18:53:46 73° 264° (W) 647 3.7 -18.9°
Drops below altitude 10° 18:58:06 10° 179° (S) 1,963 6.0 -19.6°
Enters shadow 18:59:32 - 178° (S) 2,546 6.6 -19.8°
